Location: ?????
(31.8092°N, 35.2590°E)
Time: 17:22:45
(UTC+00:00)

Cosmos 1844 - Pass Details

Date: 20 June 2021
Orbit: 823 x 867 km, 70.9° (Epoch: 04 August)

Event Time Altitude Azimuth Distance (km) Brightness Sun altitude
Rises 18:45:21 0° 345° (NNW) 3,368 7.9 -20.7°
Reaches altitude 10° 18:47:51 10° 351° (N) 2,435 6.9 -21.0°
Maximum altitude 18:53:17 52° 67° (ENE) 1,032 4.0 -21.8°
Enters shadow 18:54:34 43° 108° (ESE) 1,157 4.0 -22.0°
